Snowmass, USA 16 day weather forecast

Slopes altitude range 2470 m - 3815m

Number of lifts: 17 Pistes: 241km

In some cases the lift and piste totals shown are for the ski domain (e.g. Three Valleys) rather than individual resort (e.g. Courchevel)

Overview

The 16 day weather forecast is fully updated 4 times every day.

    • Tue 24 APR 2018
    • Tue 24
    • -2C -1C
    • Wed 25 APR 2018
    • Wed 25
    • -6C -5C
    • Thu 26 APR 2018
    • Thu 26
    • -3C -3C
    • Fri 27 APR 2018
    • Fri 27
    • -3C -2C
    • Sat 28 APR 2018
    • Sat 28
    • -1C -1C
    • Sun 29 APR 2018
    • Sun 29
    • -3C 0C
    • Mon 30 APR 2018
    • Mon 30
    • -3C -1C
    • Tue 01 MAY 2018
    • Tue 01
    • -3C -1C
    • Wed 02 MAY 2018
    • Wed 02
    • -8C -3C
    • Thu 03 MAY 2018
    • Thu 03
    • -6C -5C
    • Fri 04 MAY 2018
    • Fri 04
    • -5C 7C
    • Sat 05 MAY 2018
    • Sat 05
    • -4C 13C
    • Sun 06 MAY 2018
    • Sun 06
    • -2C 12C
    • Mon 07 MAY 2018
    • Mon 07
    • -1C 13C
    • Tue 08 MAY 2018
    • Tue 08
    • 0C 14C
    • Wed 09 MAY 2018
    • Wed 09
    • 1C 17C

Date:

Time Type 0°C level Temp Chill Snow Cloud Speed Gust Dir Press
3:00 3668m 0°C 0_2 1cm 98% 2mph 3mph 1016mB
6:00 3327m -1°C -1_3 2cm 99% 3mph 4mph 1019mB
9:00 3078m -2°C -2_2 3cm 100% 2mph 2mph 1020mB
12:00 3047m -1°C -1_4 6cm 100% 4mph 4mph 1022mB
15:00 3265m 0°C 0_3 0cm 83% 3mph 3mph 1021mB
18:00 3526m 2°C 2_5 1cm 67% 5mph 8mph 1019mB
21:00 3660m 2°C 2_10 2cm 91% 10mph 16mph 1018mB
0:00 3598m 2°C 2_9 3cm 93% 9mph 17mph 1019mB
3:00 2748m -4°C -4_5 0cm 6% 5mph 6mph 1023mB
6:00 2556m -5°C -5_4 0cm 4% 4mph 5mph 1025mB
9:00 2458m -6°C -6_3 0cm 0% 3mph 4mph 1025mB
12:00 2348m -5°C -5_3 0cm 0% 3mph 4mph 1025mB
15:00 3192m -1°C -1_4 0cm 0% 4mph 5mph 1023mB
18:00 3645m 4°C 4_5 0cm 0% 5mph 5mph 1020mB
21:00 3931m 4°C 4_6 0cm 0% 6mph 4mph 1017mB
0:00 3940m 4°C 4_6 0cm 0% 6mph 7mph 1016mB
3:00 3104m -2°C -2_3 0cm 16% 3mph 3mph 1019mB
6:00 2903m -3°C -3_1 0cm 8% 1mph 2mph 1020mB
9:00 2863m -3°C -3_1 0cm 5% 1mph 2mph 1019mB
12:00 2826m -3°C -3_3 0cm 3% 3mph 4mph 1020mB
15:00 3428m 2°C 2_7 0cm 0% 7mph 9mph 1020mB
18:00 3653m 5°C 5_11 0cm 10% 11mph 14mph 1019mB
21:00 3833m 5°C 5_10 0cm 77% 10mph 10mph 1017mB
0:00 3914m 5°C 5_9 0cm 39% 9mph 9mph 1017mB
3:00 3165m -1°C -1_4 0cm 0% 4mph 4mph 1021mB
6:00 2971m -2°C -2_5 0cm 0% 5mph 5mph 1022mB
9:00 2906m -3°C -3_5 0cm 0% 5mph 6mph 1021mB
12:00 2902m -2°C -2_5 0cm 0% 5mph 6mph 1021mB
15:00 3577m 3°C 3_5 0cm 0% 5mph 4mph 1019mB
18:00 3946m 7°C 7_6 0cm 0% 6mph 5mph 1016mB
21:00 4137m 7°C 7_9 0cm 0% 9mph 7mph 1012mB
0:00 4142m 7°C 7_6 0cm 3% 6mph 7mph 1011mB
3:00 4013m 1°C 1_4 0cm 37% 4mph 5mph 1013mB
6:00 3243m -1°C -1_6 0cm 42% 6mph 7mph 1014mB
9:00 3184m -1°C -1_6 0cm 0% 6mph 7mph 1014mB
12:00 3131m -1°C -1_6 0cm 34% 6mph 7mph 1014mB
15:00 3664m 4°C 4_7 0cm 100% 7mph 9mph 1012mB
18:00 3907m 7°C 7_8 0cm 100% 8mph 11mph 1009mB
21:00 4022m 7°C 7_11 1cm 70% 11mph 14mph 1006mB
0:00 3954m 6°C 6_9 6cm 85% 9mph 19mph 1005mB
3:00 3893m 1°C 1_8 1cm 93% 8mph 11mph 1007mB
6:00 3533m 0°C 0_8 1cm 50% 8mph 11mph 1008mB
9:00 2960m -3°C -3_6 0cm 0% 6mph 8mph 1010mB
12:00 2807m 0°C 0_6 0cm 0% 6mph 7mph 1011mB
15:00 3487m 2°C 2_9 0cm 0% 9mph 24mph 1010mB
18:00 3725m 6°C 6_14 0cm 0% 14mph 24mph 1008mB
21:00 3972m 6°C 6_18 0cm 11% 18mph 26mph 1005mB
0:00 3966m 6°C 6_18 0cm 46% 18mph 28mph 1005mB
3:00 3558m 0°C 0_6 0cm 100% 6mph 8mph 1008mB
6:00 3123m -1°C -1_6 0cm 98% 6mph 7mph 1010mB
9:00 2978m -2°C -2_5 0cm 6% 5mph 6mph 1011mB
12:00 2844m -1°C -1_6 0cm 4% 6mph 7mph 1012mB
15:00 3497m 3°C 3_10 0cm 45% 10mph 29mph 1011mB
18:00 3688m 6°C 6_14 0cm 23% 14mph 25mph 1010mB
21:00 3757m 6°C 6_18 0cm 100% 18mph 24mph 1009mB
0:00 3537m 3°C 3_8 0cm 100% 8mph 17mph 1010mB
3:00 3215m -1°C -1_3 1cm 98% 3mph 4mph 1012mB
6:00 3168m -1°C -1_5 0cm 99% 5mph 6mph 1013mB
9:00 2984m -2°C -2_6 0cm 100% 6mph 7mph 1013mB
12:00 2884m -1°C -1_5 0cm 100% 5mph 6mph 1013mB
15:00 3408m 2°C 2_9 0cm 100% 9mph 19mph 1012mB
18:00 3622m 5°C 5_14 0cm 100% 14mph 23mph 1010mB
21:00 3570m 4°C 4_9 1cm 100% 9mph 13mph 1009mB
0:00 3351m 0°C 0_2 1cm 100% 2mph 3mph 1010mB
3:00 2948m -3°C -3_0 1cm 100% 0mph 1mph 1012mB
6:00 2782m -4°C -4_5 1cm 100% 5mph 6mph 1013mB
9:00 2668m -5°C -5_3 3cm 100% 3mph 4mph 1013mB
12:00 2031m -3°C -3_2 3cm 82% 2mph 2mph 1014mB
15:00 2963m -2°C -2_4 0cm 1% 4mph 4mph 1012mB
18:00 3320m 0°C 0_7 0cm 16% 7mph 7mph 1010mB
21:00 3410m 0°C 0_10 2cm 67% 10mph 10mph 1009mB
0:00 3297m 0°C 0_9 4cm 83% 9mph 11mph 1010mB
3:00 2545m -5°C -5_4 1cm 100% 4mph 5mph 1013mB
6:00 2377m -6°C -6_3 1cm 100% 3mph 4mph 1014mB
9:00 2574m -6°C -6_4 1cm 100% 4mph 5mph 1014mB
12:00 2601m -5°C -5_4 2cm 100% 4mph 6mph 1016mB
15:00 2897m -3°C -3_6 1cm 100% 6mph 7mph 1015mB
18:00 3318m 0°C 0_8 2cm 100% 8mph 9mph 1014mB
Morning 0.458333mm 5.25 2709m -2°C -2_1 42cm 91% 1mph 2mph 1021mB
Afternoon 0.197917mm 0.9375 3486m 7°C 7_5 8cm 26% 5mph 7mph 1022mB
Morning 0.00520833mm 2.6875 2632m -3°C -3_4 22cm 21% 4mph 5mph 1028mB
Afternoon 0.0572917mm 0 3740m 13°C 13_2 0cm 1% 2mph 2mph 1026mB
Morning 0.817708mm 0.125 3291m -1°C -1_5 7cm 59% 5mph 6mph 1028mB
Afternoon 0.489583mm 0 3901m 12°C 12_5 0cm 2% 5mph 4mph 1024mB
Morning 1.14062mm 0.4375 3956m 2°C 2_3 9cm 71% 3mph 4mph 1026mB
Afternoon 0.28125mm 0 4003m 13°C 13_6 0cm 10% 6mph 9mph 1022mB
Morning 0.776042mm 0 4067m 2°C 2_4 6cm 78% 4mph 5mph 1022mB
Afternoon 0.385417mm 0 4158m 14°C 14_6 0cm 0% 6mph 8mph 1017mB
Morning 0.135417mm 0.375 4245m 3°C 3_4 0cm 62% 4mph 4mph 1019mB
Afternoon 0.385417mm 0 4331m 17°C 17_5 0cm 57% 5mph 6mph 1014mB

16 day outlook at a glance

Forecast issued: 24/04/2018 05:26:45

Chat

Your comments and questions. In a resort? Let us know what it's like!


Characters left 250

For terms and conditions see Readers Comments on the Cookie and privacy policy page.